Wind_Speed
15 14 14 14 14 14 14 14 14 14 14 14 14 14 15 15 15 15 16 16 17 18 18 18 19 19 19 20 21 21 22 22 21 21 22 23 24 24 24 25 26 26 26
15 14 14 14 14 14 15 15 15 15 15 15 15 14 14 14 15 15 15 16 17 18 18 18 18 19 19 20 20 21 21 21 21 20 21 22 23 24 25 25 25 25 25
15 14 14 15 15 15 16 15 15 16 16 15 15 15 15 15 16 15 15 16 17 18 18 18 18 19 19 19 20 20 21 21 21 21 21 22 23 24 24 25 24 25 25
15 15 15 15 16 16 16 16 16 16 16 16 16 16 17 17 16 15 16 16 17 18 18 18 18 19 19 19 20 20 20 20 21 21 21 21 22 23 23 23 23 24 25
16 15 15 15 16 15 16 16 15 16 16 16 16 17 17 17 16 16 17 17 17 17 17 17 18 18 19 19 19 20 20 21 22 21 21 21 21 22 22 23 23 24 26
16 15 15 15 15 14 15 15 16 16 17 17 18 18 18 17 17 17 17 17 17 17 17 17 17 18 19 20 20 21 22 21 22 22 22 22 22 22 21 21 22 24 25
15 15 14 14 14 14 15 16 16 16 17 17 17 17 18 18 17 17 17 17 17 17 17 18 18 19 20 21 21 22 22 22 22 22 22 22 22 22 22 21 22 22 23
15 15 15 15 15 15 16 16 15 16 16 17 17 17 17 18 18 18 17 18 17 18 18 19 20 21 21 22 22 23 23 23 22 22 23 23 24 24 24 23 23 22 23
15 15 16 16 16 16 16 16 16 17 17 17 17 17 18 18 18 18 17 17 17 17 17 18 20 21 21 22 22 22 23 23 23 23 24 24 24 24 24 24 24 23 23
17 17 16 16 16 16 17 17 17 18 18 18 18 18 18 18 18 18 17 17 17 17 18 19 19 20 21 21 22 22 22 23 23 23 24 24 25 25 24 24 24 24 23
18 17 16 17 17 17 17 17 17 17 17 17 18 18 18 18 17 17 17 17 17 18 18 19 19 20 21 21 21 21 22 22 22 23 23 24 24 24 24 24 24 24 23
18 18 17 17 18 18 18 18 17 17 17 17 18 18 18 18 17 17 17 17 18 19 19 19 19 20 21 21 21 21 22 22 23 23 23 23 23 23 23 24 24 24 24
19 18 18 18 18 19 19 18 18 18 18 18 18 18 17 17 16 16 16 16 17 18 18 18 19 20 20 21 21 21 22 23 23 23 23 23 23 23 23 23 23 23 23
19 19 19 19 19 18 18 19 19 18 18 18 18 18 17 16 16 16 16 17 17 17 17 18 19 20 20 21 21 21 22 23 23 23 23 23 22 23 22 22 22 22 22
20 20 20 19 19 19 19 20 19 18 18 18 18 18 16 16 16 16 16 17 17 18 18 19 20 21 21 20 20 21 22 24 24 24 24 23 23 23 22 22 22 22 22
19 19 19 18 19 19 19 19 18 18 18 17 17 16 15 15 15 16 16 17 17 18 18 19 20 20 20 21 22 22 23 24 24 24 24 23 22 22 22 22 22 21 21
19 19 19 19 19 19 19 18 18 18 18 17 16 15 14 15 15 15 15 16 17 17 18 19 20 20 21 22 23 23 24 24 24 24 23 22 22 21 21 21 21 20 20
19 19 19 19 18 18 18 17 17 17 17 15 15 15 15 15 15 15 15 16 16 17 18 19 19 20 21 22 22 23 24 24 24 23 23 22 21 21 21 20 20 20 20
20 19 19 19 18 18 17 17 16 16 15 14 14 14 14 14 14 14 15 16 17 17 18 19 20 21 21 22 23 24 24 24 23 22 22 21 20 20 21 21 21 21 21
20 19 19 19 19 18 18 17 17 16 15 14 15 15 15 15 15 15 16 17 17 18 19 20 21 21 22 23 23 24 24 23 23 22 21 21 21 21 21 21 21 22 22
21 20 20 19 19 18 18 18 17 16 15 15 15 15 15 15 15 16 16 17 17 19 20 21 22 23 23 24 24 24 23 23 23 22 22 22 22 22 22 22 22 23 23
21 21 20 20 20 19 19 18 17 17 16 16 16 16 16 16 16 16 17 18 19 20 21 22 23 24 24 24 24 23 23 24 23 22 22 22 23 23 23 24 24 24 23
22 21 21 21 20 20 19 19 19 18 17 17 17 17 18 18 18 18 19 19 20 21 22 23 24 24 24 24 24 23 23 23 23 23 23 23 23 23 24 24 24 23 23
22 22 22 21 20 20 19 19 19 18 18 18 18 19 19 19 20 20 20 21 22 22 23 24 24 24 24 24 24 24 24 24 23 23 24 24 24 24 24 24 24 23 23
23 22 21 21 20 20 20 20 20 20 20 20 20 20 20 20 20 21 22 22 23 23 24 24 24 23 23 23 23 23 23 23 23 23 23 24 23 23 24 25 24 23 21
22 21 21 21 21 21 21 21 21 21 21 21 21 22 21 21 22 22 23 24 23 23 24 24 24 23 23 23 23 22 22 22 22 23 24 24 24 24 24 24 23 21 20
Wind_Direction
303 301 300 299 295 295 295 296 298 300 303 303 304 305 303 300 300 298 292 288 288 289 291 291 292 295 296 297 296 294 293 292 290 287 284 283 280 277 275 273 272 273 272
305 302 299 298 294 292 292 294 296 298 299 301 303 306 306 306 305 300 294 292 291 291 292 292 293 295 298 299 297 297 296 293 292 290 288 286 282 280 277 276 274 273 271
306 303 301 299 297 293 291 292 295 297 299 302 305 307 307 307 306 303 299 297 294 293 292 292 293 296 299 300 299 299 298 295 293 292 290 288 286 283 281 278 275 273 271
307 306 304 300 297 294 292 292 296 298 301 303 305 305 306 305 305 304 302 300 298 298 298 297 296 296 298 301 301 301 300 297 297 294 292 292 290 288 283 278 276 274 272
307 305 305 302 297 293 293 293 296 300 302 303 302 303 305 304 303 303 302 301 301 301 300 299 298 296 298 300 303 304 302 301 299 298 295 293 292 291 288 283 280 278 275
309 308 305 303 300 296 295 296 298 301 302 301 302 302 303 302 301 301 302 303 303 302 301 300 298 297 299 301 302 302 302 302 300 298 296 293 294 295 293 289 285 281 278
308 308 308 307 303 300 299 298 299 301 303 303 303 301 301 302 301 302 302 303 303 303 303 302 301 301 301 301 300 301 303 303 301 299 299 298 298 298 296 294 290 286 284
308 306 305 305 302 300 299 300 299 302 303 304 304 302 301 301 301 301 302 302 303 303 303 303 304 304 303 303 302 304 304 304 302 300 300 299 299 298 296 294 292 290 289
307 306 303 302 299 299 301 300 298 299 302 304 304 302 302 303 303 303 303 303 304 305 305 306 307 307 306 306 306 307 307 307 306 304 303 303 302 300 297 294 294 293 292
303 305 303 300 298 299 301 300 299 298 298 302 303 303 305 305 305 304 303 305 305 306 308 309 310 310 310 310 310 311 312 311 309 306 305 305 303 301 298 295 296 295 294
302 301 298 296 297 298 300 300 299 298 298 300 302 302 302 303 303 302 301 302 303 306 308 309 311 312 313 313 314 314 313 312 311 310 308 307 304 301 299 296 296 296 296
300 299 294 293 295 297 297 297 297 297 297 298 302 303 301 300 300 300 300 302 304 307 310 311 313 314 315 315 315 315 314 313 313 312 311 310 307 304 299 296 295 296 295
300 299 295 292 295 298 298 296 296 296 297 299 301 302 301 298 298 300 300 301 304 306 309 311 313 314 316 318 317 316 316 316 316 315 313 312 311 309 305 301 299 298 297
297 297 296 294 296 296 296 297 297 296 297 300 300 300 299 298 299 300 300 300 302 306 311 315 316 317 318 318 317 317 318 318 319 317 314 312 311 310 310 307 303 300 298
298 297 296 295 294 293 294 296 295 295 297 298 300 300 298 298 300 301 301 301 304 307 310 313 315 316 316 317 317 317 318 317 317 315 314 312 311 311 311 310 308 306 303
296 297 296 295 294 293 293 293 294 295 295 296 296 298 299 299 300 303 304 305 307 309 311 314 315 317 317 318 318 318 319 319 318 318 318 317 316 315 313 311 310 309 306
292 294 294 294 294 293 294 295 296 296 296 297 295 293 297 300 300 302 305 308 309 310 312 315 317 318 319 320 320 319 321 322 322 322 322 321 319 317 316 315 314 312 310
289 293 292 292 294 294 295 296 295 294 294 293 295 296 298 305 308 308 308 311 312 315 316 317 320 322 322 322 323 323 324 324 324 323 323 323 323 321 319 317 316 314 313
287 292 293 292 294 296 296 295 294 293 293 293 296 299 299 302 307 310 312 312 313 315 316 318 319 320 321 322 323 323 324 325 325 323 323 324 323 321 320 319 317 315 314
285 288 290 289 289 291 292 292 293 292 292 293 296 298 299 300 304 306 310 312 312 315 317 318 318 319 320 321 322 323 324 324 325 325 324 323 323 322 320 320 319 317 315
283 286 287 286 286 287 288 287 289 291 292 292 295 297 297 299 303 306 310 311 313 316 318 318 319 320 321 321 321 322 323 323 323 323 323 322 321 321 320 319 319 318 316
283 284 285 285 283 283 283 283 284 287 287 290 294 296 297 299 301 304 307 309 311 313 316 319 321 322 322 321 321 321 321 322 322 322 322 322 321 321 321 320 320 319 318
282 283 283 282 281 280 280 279 280 281 284 288 291 293 295 299 302 305 307 309 311 313 315 318 319 320 321 320 320 320 321 321 322 323 323 324 324 323 323 322 322 321 321
282 282 282 280 278 279 280 280 280 282 284 287 290 291 294 297 300 302 305 306 309 310 312 315 316 317 319 319 320 321 322 322 323 324 325 325 325 324 324 323 323 323 322
280 280 279 278 278 278 278 278 279 281 282 284 286 288 291 294 298 300 302 304 306 308 310 313 315 316 317 318 321 322 323 324 326 326 326 326 326 326 326 327 326 325 324
278 278 277 276 276 276 276 276 278 279 281 283 285 286 289 292 296 298 299 302 303 305 307 310 312 314 315 315 318 321 324 325 326 328 328 327 327 327 327 327 327 327 327
Height
5775 5773 5772 5771 5770 5768 5768 5767 5766 5764 5763 5761 5760 5758 5756 5755 5753 5751 5750 5749 5747 5746 5745 5744 5743 5741 5740 5738 5736 5734 5733 5731 5730 5729 5728 5727 5726 5726 5725 5725 5724 5723 5723
5771 5770 5769 5767 5766 5765 5765 5764 5763 5761 5760 5758 5756 5754 5753 5751 5749 5747 5745 5744 5743 5742 5740 5739 5737 5736 5734 5733 5731 5729 5727 5725 5724 5722 5721 5720 5719 5718 5717 5716 5715 5715 5715
5768 5767 5765 5764 5763 5762 5761 5760 5759 5757 5756 5754 5753 5751 5749 5747 5745 5743 5741 5740 5738 5737 5736 5734 5733 5731 5729 5727 5725 5723 5721 5719 5718 5716 5715 5713 5712 5710 5709 5708 5707 5707 5706
5765 5764 5762 5761 5759 5758 5757 5756 5755 5754 5752 5751 5749 5747 5745 5743 5741 5739 5737 5736 5734 5732 5731 5729 5728 5726 5724 5722 5720 5718 5716 5714 5712 5710 5708 5707 5705 5703 5701 5700 5700 5699 5698
5762 5760 5759 5757 5756 5754 5753 5752 5751 5750 5749 5747 5746 5744 5742 5740 5738 5736 5733 5731 5730 5728 5726 5724 5723 5721 5719 5717 5715 5713 5710 5708 5706 5703 5702 5700 5698 5696 5694 5693 5692 5691 5690
5758 5757 5755 5753 5752 5751 5750 5749 5748 5746 5745 5743 5742 5740 5738 5736 5734 5732 5730 5727 5725 5724 5722 5720 5718 5716 5714 5712 5710 5707 5705 5702 5700 5697 5695 5693 5691 5689 5687 5685 5684 5683 5682
5755 5753 5752 5750 5749 5747 5746 5745 5744 5742 5741 5739 5738 5736 5734 5732 5730 5728 5725 5723 5721 5720 5718 5715 5713 5711 5709 5707 5704 5702 5699 5696 5694 5691 5689 5687 5684 5682 5681 5679 5676 5674 5673
5752 5750 5748 5747 5745 5744 5742 5741 5740 5739 5737 5735 5734 5732 5730 5728 5726 5724 5721 5719 5717 5715 5714 5711 5709 5706 5704 5701 5699 5696 5693 5690 5687 5685 5683 5680 5678 5675 5673 5671 5669 5667 5665
5749 5747 5745 5743 5742 5740 5739 5737 5736 5735 5733 5732 5730 5728 5726 5724 5722 5719 5717 5715 5713 5711 5709 5707 5704 5701 5699 5696 5693 5690 5687 5684 5681 5679 5676 5673 5671 5668 5666 5664 5662 5660 5657
5745 5743 5741 5739 5738 5737 5735 5734 5732 5730 5729 5727 5725 5723 5721 5719 5717 5715 5713 5711 5709 5707 5704 5702 5699 5697 5694 5690 5687 5684 5681 5679 5675 5673 5670 5667 5664 5661 5659 5656 5654 5652 5650
5741 5739 5737 5736 5734 5733 5731 5730 5728 5726 5724 5723 5721 5719 5717 5715 5713 5710 5708 5706 5704 5702 5700 5697 5695 5692 5688 5685 5682 5679 5676 5673 5670 5667 5663 5660 5657 5654 5652 5649 5647 5645 5643
5737 5735 5733 5732 5730 5728 5727 5725 5723 5722 5720 5718 5717 5715 5712 5710 5708 5706 5704 5702 5700 5698 5695 5692 5690 5687 5684 5681 5677 5674 5670 5667 5664 5661 5657 5654 5651 5648 5645 5642 5640 5638 5635
5732 5730 5728 5727 5726 5724 5722 5720 5719 5717 5715 5714 5712 5710 5707 5705 5704 5702 5700 5697 5695 5693 5690 5688 5685 5682 5679 5676 5672 5669 5666 5662 5658 5655 5652 5648 5645 5641 5638 5635 5633 5630 5628
5727 5726 5724 5722 5720 5719 5717 5716 5714 5712 5711 5709 5707 5705 5703 5701 5699 5697 5695 5693 5691 5689 5686 5683 5680 5677 5674 5671 5668 5664 5661 5657 5653 5650 5646 5642 5639 5635 5632 5629 5626 5624 5621
5722 5720 5719 5717 5715 5714 5712 5711 5709 5707 5706 5704 5702 5700 5698 5697 5695 5693 5691 5689 5687 5685 5682 5679 5676 5673 5670 5667 5663 5659 5656 5652 5648 5644 5640 5636 5632 5629 5626 5623 5620 5617 5615
5718 5716 5714 5712 5710 5709 5707 5706 5704 5702 5701 5699 5698 5696 5694 5693 5691 5689 5687 5685 5682 5680 5678 5675 5672 5669 5665 5662 5658 5654 5651 5647 5642 5638 5634 5630 5626 5623 5620 5617 5614 5611 5608
5712 5711 5709 5707 5705 5704 5702 5701 5699 5698 5696 5695 5693 5692 5690 5689 5687 5685 5683 5681 5678 5676 5673 5670 5667 5664 5661 5657 5653 5649 5645 5641 5637 5633 5629 5625 5621 5618 5614 5611 5608 5605 5602
5707 5705 5704 5702 5700 5699 5697 5696 5695 5693 5692 5690 5689 5688 5686 5684 5683 5681 5679 5677 5675 5672 5669 5666 5663 5660 5656 5652 5648 5644 5640 5636 5632 5628 5624 5620 5616 5613 5610 5606 5603 5600 5597
5701 5700 5698 5697 5695 5694 5692 5691 5690 5689 5688 5686 5685 5684 5683 5681 5679 5677 5676 5673 5671 5668 5665 5662 5659 5655 5651 5647 5643 5639 5635 5631 5627 5623 5619 5615 5612 5608 5605 5602 5598 5595 5592
5695 5694 5693 5692 5690 5689 5688 5687 5685 5684 5683 5683 5681 5680 5679 5677 5676 5674 5672 5670 5667 5664 5661 5658 5654 5650 5647 5642 5638 5634 5630 5626 5622 5618 5614 5611 5607 5604 5600 5597 5593 5590 5587
5689 5688 5687 5686 5685 5684 5683 5682 5681 5680 5679 5678 5677 5676 5675 5673 5672 5670 5668 5666 5663 5660 5657 5653 5649 5646 5642 5637 5633 5629 5625 5621 5617 5614 5610 5606 5603 5599 5595 5592 5588 5585 5581
5683 5682 5681 5680 5679 5678 5678 5677 5676 5675 5674 5674 5672 5671 5670 5669 5667 5665 5663 5661 5659 5656 5652 5649 5645 5641 5637 5632 5628 5624 5621 5617 5612 5609 5605 5601 5597 5594 5590 5586 5583 5579 5575
5677 5676 5675 5674 5673 5673 5672 5672 5671 5670 5670 5669 5668 5666 5665 5664 5662 5660 5658 5656 5653 5650 5647 5644 5640 5636 5632 5627 5623 5620 5616 5612 5608 5604 5600 5596 5592 5588 5584 5580 5577 5573 5569
5670 5669 5669 5668 5667 5667 5666 5666 5665 5665 5664 5663 5662 5661 5660 5659 5657 5655 5653 5651 5648 5645 5642 5638 5635 5631 5627 5622 5618 5615 5610 5606 5602 5598 5595 5591 5586 5582 5578 5575 5571 5567 5563
5663 5662 5662 5661 5661 5661 5660 5660 5660 5659 5658 5658 5657 5656 5654 5653 5651 5649 5647 5645 5642 5639 5636 5632 5629 5625 5621 5617 5613 5609 5605 5601 5597 5593 5589 5585 5581 5577 5573 5569 5565 5561 5558
5656 5655 5655 5655 5654 5654 5654 5654 5653 5653 5652 5651 5650 5649 5648 5646 5645 5643 5641 5638 5636 5633 5630 5626 5623 5619 5616 5612 5608 5605 5601 5597 5593 5588 5584 5580 5576 5572 5567 5563 5559 5556 5552